User: anonymous   Login
Location: Gisborne
(38.6530°S, 178.0040°E)
Time: 16:07:54
(UTC+12:00)
Language:

Terra - Orbit

View from above orbital plane
View from above orbital plane
View from above satellite
View from above satellite

Ground track
Ground track

The orbit data is extracted from the following two-line orbital elements,

1 25994U 99068A   19144.81443618 -.00000032  00000-0  30276-5 0  9994
2 25994  98.2048 219.7189 0001375 101.8023 258.3315 14.57115321 33575
Epoch (UTC): 24 May 2019 19:32:47
Eccentricity: 0.0001375
inclination: 98.2048°
perigee height: 701 km
apogee height: 703 km
right ascension of ascending node: 219.7189°
argument of perigee: 101.8023°
revolutions per day: 14.57115321
mean anomaly at epoch: 258.3315°
orbit number at epoch: 3357

The dashed part of the orbit path shows where the satellite is in the earth's shadow,  

DLR